Location: Castro Valley
(37.6941°N, 122.0863°W)
Time: 17:07:44
(UTC+00:00)

Daily predictions for brighter satellites

Satellite Brightness Start Highest point End
(mag) Time Altitude Azimuth Time Altitude Azimuth Time Altitude Azimuth
CZ-2D R/B 4.1 12:05:12 10° NNW 12:07:50 14° WNW 12:10:29 10° W
Cosmos 1140 Rocket 4.1 12:04:29 12° SW 12:09:01 40° WNW 12:13:54 10° N
H-2A R/B 4.2 12:05:49 10° N 12:09:18 33° WNW 12:12:48 10° SW
Cosmos 2263 Rocket 2.9 12:06:58 11° SW 12:11:53 37° WNW 12:17:08 10° N
Meteor 1-24 Rocket 4.4 12:09:10 10° SW 12:14:34 40° WNW 12:20:09 10° N
Cosmos 1378 Rocket 4.5 12:11:54 10° S 12:16:07 52° E 12:20:23 10° NNE
BREEZE M DEB (TANK) 2.7 12:16:25 10° SSW 12:18:33 44° SE 12:21:31 10° ENE
Meteor 1-28 Rocket 4.2 12:16:18 10° SSW 12:19:04 23° W 12:21:51 10° NW
Meteor 2-5 Rocket 4.4 12:15:41 10° SW 12:20:52 37° WNW 12:26:12 10° N
SJ 16-02 3.7 12:25:41 10° SSE 12:29:06 24° E 12:32:33 10° NE
Tiangong -1.3 12:26:34 10° WNW 12:29:40 53° NNE 12:32:48 10° E
SL-16 R/B 3.3 12:25:49 10° SSW 12:31:07 30° W 12:36:27 10° NW
